Weather Roundup
Issued by NWS Chicago, IL

Home | Current Version | Previous Version | Graphics & Text | Print | Product List | Glossary On
Versions: 1 2 3 4 5 6 7 8 9 10 11 12 13 14 15 16 17 18 19 20 21 22 23 24 25 26 27 28 29 30 31 32 33 34 35 36 37 38 39 40 41 42 43 44 45 46 47 48 49 50
000
NZUS59 KLOT 280306
HRRLOT

CHICAGO AREA WEATHER ROUNDUP
NATIONAL WEATHER SERVICE CHICAGO/ROMEOVILLE IL
900 PM CST SAT DEC 27 2014

NOTE: "FAIR" INDICATES FEW OR NO CLOUDS BELOW 12,000 FEET WITH NO
SIGNIFICANT WEATHER AND/OR OBSTRUCTIONS TO VISIBILITY.

* THESE STATIONS ARE NOT UNDER NWS QUALITY CONTROL. THEY ALSO MAY NOT
  REPORT WEATHER SUCH AS PRECIPITATION OR FOG.

ILZ005-006-012>014-019>023-280400-
NORTHEAST ILLINOIS

CITY           SKY/WX    TMP DP  RH WIND       PRES   REMARKS
OHARE          CLOUDY    32  25  75 W14       30.10R WCI  22
MIDWAY         CLOUDY    36  26  67 W10       30.10S
AURORA         MOCLDY    30  25  81 W9        30.12R WCI  22
LANSING*       CLOUDY    34  26  74 NW7       30.11S WCI  28
JOLIET*        CLOUDY    32  26  80 W9        30.13R WCI  24
WAUKEGAN       CLOUDY    33  26  75 W5        30.08R WCI  29
DUPAGE AIRPORT MOCLDY    31  25  78 W9        30.10R WCI  23
WHEELING       CLOUDY    33  25  72 W12       30.11S WCI  24
KANKAKEE*      CLOUDY    32  28  86 W12       30.13S WCI  23
MORRIS*        MOCLDY    30  28  92 W7        30.13S WCI  23
LEWIS AIRPORT* CLOUDY    32  27  83 W8        30.12R WCI  25
NORTHERLY IS     N/A     35  26  70 W6          N/A  WCI  30
$$

WIZ051-052-058>065-066-070>072-280400-
SOUTHEAST WISCONSIN

CITY           SKY/WX    TMP DP  RH WIND       PRES   REMARKS
MILWAUKEE      MOCLDY    34  25  69 W10       30.07R WCI  26
KENOSHA*       CLOUDY    33  26  75 W12       30.08R WCI  24
RACINE*        CLOUDY    34  25  69 W10       30.09R WCI  26
BURLINGTON     CLOUDY    30  24  79 W9        30.08F WCI  22
WAUKESHA       CLOUDY    30  25  80 W13       30.08R WCI  20
WEST BEND      CLOUDY    30  23  74 W14       30.06R WCI  20
$$

INZ001>003-010>013-019-020-280400-
NORTHWEST INDIANA

CITY           SKY/WX    TMP DP  RH WIND       PRES   REMARKS
GARY*          CLOUDY    36  24  60 W15       30.11S
MICHIGAN CITY* NOT AVBL
RENSSELAER*    NOT AVBL
VALPARAISO     CLOUDY    33  27  78 W10       30.10R WCI  25
$$

LMZ740>746-280400-
SOUTHERN LAKE MICHIGAN

STATION/POSITION TIME  SKY/WX   TEMP WIND        PRES    VSBY
                                AIR  DIR/SP/G
                 (UTC)          (F)  (DEG/KT/KT) (MB)    (MI)
HARRISON CRIB    0300            34  300/ 13/ 16   N/A
BURNHAM HARBOR   0300            35  270/  7/ 14   N/A
CALUMET HARBOR   0300            35  280/  9/ 12 1018.0S
BURNS HARBOR     NOT AVBL
MICHIGAN CITY    0300            35  270/ 18/ 20   N/A
$$

ABBREVIATIONS USED IN REMARKS
   TC - TEMPERATURE IN CELSIUS
  WCI - WIND CHILL INDEX
   HX - HEAT INDEX
  VSB - VISIBILITY
$$



USA.gov is the U.S. government's official web portal to all federal, state and local government web resources and services.